User: anonymous   Login
Location: Antioch
(38.0049°N, 121.8058°W)
Time: 19:32:10
(UTC+00:00)
Language:

Cosmos 1570 Rocket - Orbit

View from above orbital plane
View from above orbital plane
View from above satellite
View from above satellite

Ground track
Ground track

The orbit is defined by the following mean orbital elements,

1 15032U          26105.51403051 +.00000000 +00000-0 +27922-4 0 00003
2 15032  74.0679 298.1279 0016748   3.8818 356.2462 14.36124089    04
Epoch (UTC): 15 April 2026 12:20:12
Eccentricity: 0.0016748
inclination: 74.0679°
perigee height: 759 km
apogee height: 783 km
right ascension of ascending node: 298.1279°
argument of perigee: 3.8818°
revolutions per day: 14.36124089
mean anomaly at epoch: 356.2462°

The dashed part of the orbit path shows where the satellite is in the earth's shadow,  

DLR